When you browse on this site, cookies collect data to enhance your experience and personalize the content and advertising you see.
Visit our Privacy Policy to learn more. By continuing to use the site, you agree to this use of cookies and data.
  • In Czech Republic
  • List of Countries
  • For 7 days
  • Water Temperature
  • Weather Map
  • Weather Widgets
  • user-avatar
    Login

    Hourly Weather Mogotes

    Today, 3 April, Friday

    Time Temperature Precipitation Wind Pressure Humidity
    00:00 +16°C° 0 mm 0 mps 619 mmHg 92%
    01:00 +16°C° 0 mm 0 mps 619 mmHg 92%
    02:00 +16°C° 0.1 mm 0 mps 618 mmHg 92%
    03:00 +18°C° 0.1 mm 1 mps 618 mmHg 92%
    04:00 +16°C° 0.1 mm 1 mps 618 mmHg 92%
    05:00 +16°C° 0 mm 0 mps 618 mmHg 90%
    06:00 +17°C° 0 mm 0 mps 619 mmHg 89%
    07:00 +17°C° 0 mm 0 mps 620 mmHg 87%
    08:00 +21°C° 0 mm 1 mps 620 mmHg 80%
    09:00 +24°C° 0 mm 1 mps 621 mmHg 72%
    10:00 +26°C° 0 mm 1 mps 622 mmHg 65%
    11:00 +26°C° 0.6 mm 1 mps 622 mmHg 65%
    12:00 +27°C° 0.6 mm 2 mps 621 mmHg 64%
    13:00 +27°C° 0.6 mm 2 mps 620 mmHg 64%
    14:00 +26°C° 1.9 mm 1 mps 620 mmHg 71%
    15:00 +25°C° 1.9 mm 1 mps 619 mmHg 78%
    16:00 +24°C° 1.9 mm 1 mps 618 mmHg 84%
    17:00 +22°C° 2.6 mm 1 mps 618 mmHg 87%
    18:00 +21°C° 2.6 mm 1 mps 618 mmHg 89%
    19:00 +18°C° 2.6 mm 0 mps 618 mmHg 91%
    20:00 +18°C° 0.8 mm 0 mps 618 mmHg 91%
    21:00 +18°C° 0.8 mm 0 mps 619 mmHg 92%
    22:00 +17°C° 0.8 mm 0 mps 619 mmHg 92%
    23:00 +17°C° 0.2 mm 0 mps 619 mmHg 92%

    Tomorrow, 4 April, Saturday

    Time Temperature Precipitation Wind Pressure Humidity
    00:00 +17°C° 0.2 mm 0 mps 618 mmHg 92%
    01:00 +19°C° 0.2 mm 1 mps 618 mmHg 92%
    02:00 +18°C° 0.3 mm 1 mps 618 mmHg 92%
    03:00 +18°C° 0.3 mm 1 mps 618 mmHg 92%
    04:00 +18°C° 0.3 mm 1 mps 617 mmHg 92%
    05:00 +16°C° 0.1 mm 0 mps 618 mmHg 90%
    06:00 +17°C° 0.1 mm 0 mps 618 mmHg 88%
    07:00 +17°C° 0.1 mm 0 mps 619 mmHg 87%
    08:00 +19°C° 0.2 mm 0 mps 620 mmHg 81%
    09:00 +23°C° 0.2 mm 1 mps 621 mmHg 76%
    10:00 +25°C° 0.2 mm 1 mps 622 mmHg 70%
    11:00 +25°C° 0.8 mm 1 mps 621 mmHg 69%
    12:00 +26°C° 0.8 mm 1 mps 621 mmHg 68%
    13:00 +26°C° 0.8 mm 1 mps 620 mmHg 66%
    14:00 +25°C° 1.6 mm 1 mps 619 mmHg 72%
    15:00 +25°C° 1.6 mm 1 mps 619 mmHg 78%
    16:00 +24°C° 1.6 mm 1 mps 618 mmHg 84%
    17:00 +23°C° 1.4 mm 1 mps 618 mmHg 86%
    18:00 +21°C° 1.4 mm 1 mps 618 mmHg 89%
    19:00 +20°C° 1.4 mm 1 mps 617 mmHg 92%
    20:00 +18°C° 0.2 mm 0 mps 618 mmHg 91%
    21:00 +18°C° 0.2 mm 0 mps 619 mmHg 90%
    22:00 +18°C° 0.2 mm 0 mps 619 mmHg 90%
    23:00 +18°C° 0.1 mm 0 mps 619 mmHg 90%

    Day after tomorrow, 5 April, Sunday

    Time Temperature Precipitation Wind Pressure Humidity
    00:00 +17°C° 0.1 mm 0 mps 618 mmHg 89%
    01:00 +17°C° 0.1 mm 0 mps 618 mmHg 89%
    02:00 +17°C° 0 mm 0 mps 618 mmHg 90%
    03:00 +18°C° 0 mm 1 mps 618 mmHg 90%
    04:00 +18°C° 0 mm 1 mps 617 mmHg 90%
    05:00 +19°C° 0 mm 1 mps 618 mmHg 88%
    06:00 +19°C° 0 mm 1 mps 619 mmHg 86%
    07:00 +18°C° 0 mm 0 mps 619 mmHg 84%
    08:00 +22°C° 0 mm 1 mps 620 mmHg 76%
    09:00 +24°C° 0 mm 1 mps 621 mmHg 68%
    10:00 +27°C° 0 mm 1 mps 622 mmHg 60%
    11:00 +27°C° 0.6 mm 1 mps 621 mmHg 60%
    12:00 +27°C° 0.6 mm 1 mps 621 mmHg 60%
    13:00 +28°C° 0.6 mm 2 mps 620 mmHg 60%
    14:00 +27°C° 1.5 mm 1 mps 619 mmHg 66%
    15:00 +26°C° 1.5 mm 1 mps 619 mmHg 72%
    16:00 +25°C° 1.5 mm 1 mps 618 mmHg 78%
    17:00 +24°C° 1.9 mm 1 mps 618 mmHg 82%
    18:00 +22°C° 1.9 mm 1 mps 618 mmHg 86%
    19:00 +19°C° 1.9 mm 0 mps 618 mmHg 90%
    20:00 +20°C° 0.4 mm 1 mps 618 mmHg 89%
    21:00 +20°C° 0.4 mm 1 mps 619 mmHg 89%
    22:00 +20°C° 0.4 mm 1 mps 619 mmHg 88%
    23:00 +19°C° 0.5 mm 1 mps 619 mmHg 88%

    6 April, Monday

    Time Temperature Precipitation Wind Pressure Humidity
    00:00 +19°C° 0.5 mm 1 mps 619 mmHg 88%
    01:00 +18°C° 0.5 mm 1 mps 618 mmHg 88%
    02:00 +18°C° 0.2 mm 1 mps 618 mmHg 88%
    03:00 +18°C° 0.2 mm 1 mps 618 mmHg 87%
    04:00 +18°C° 0.2 mm 1 mps 618 mmHg 87%
    05:00 +18°C° 0 mm 1 mps 619 mmHg 85%
    06:00 +19°C° 0 mm 1 mps 619 mmHg 84%
    07:00 +19°C° 0 mm 1 mps 620 mmHg 82%
    08:00 +21°C° 0 mm 1 mps 621 mmHg 75%
    09:00 +23°C° 0 mm 1 mps 621 mmHg 67%
    10:00 +25°C° 0 mm 1 mps 622 mmHg 60%
    11:00 +26°C° 0 mm 1 mps 622 mmHg 56%
    12:00 +27°C° 0 mm 1 mps 622 mmHg 53%
    13:00 +28°C° 0 mm 2 mps 621 mmHg 49%
    14:00 +28°C° 0.2 mm 2 mps 621 mmHg 55%
    15:00 +27°C° 0.2 mm 2 mps 620 mmHg 61%
    16:00 +26°C° 0.2 mm 2 mps 619 mmHg 67%
    17:00 +24°C° 1.6 mm 1 mps 619 mmHg 74%
    18:00 +23°C° 1.6 mm 1 mps 619 mmHg 82%
    19:00 +19°C° 1.6 mm 0 mps 619 mmHg 89%
    20:00 +19°C° 0.2 mm 0 mps 619 mmHg 89%
    21:00 +18°C° 0.2 mm 0 mps 620 mmHg 89%
    22:00 +20°C° 0.2 mm 1 mps 620 mmHg 88%
    23:00 +19°C° 0 mm 1 mps 620 mmHg 88%

    7 April, Tuesday

    Time Temperature Precipitation Wind Pressure Humidity
    00:00 +19°C° 0 mm 1 mps 619 mmHg 88%
    01:00 +19°C° 0 mm 1 mps 619 mmHg 88%
    02:00 +18°C° 0 mm 1 mps 619 mmHg 88%
    03:00 +18°C° 0 mm 1 mps 618 mmHg 87%
    04:00 +18°C° 0 mm 1 mps 618 mmHg 87%
    05:00 +18°C° 0 mm 1 mps 619 mmHg 85%
    06:00 +19°C° 0 mm 1 mps 619 mmHg 83%
    07:00 +19°C° 0 mm 1 mps 620 mmHg 81%
    08:00 +21°C° 0 mm 1 mps 620 mmHg 74%
    09:00 +24°C° 0 mm 1 mps 621 mmHg 66%
    10:00 +26°C° 0 mm 1 mps 622 mmHg 59%
    11:00 +26°C° 0.2 mm 1 mps 622 mmHg 58%
    12:00 +27°C° 0.2 mm 1 mps 622 mmHg 57%
    13:00 +27°C° 0.2 mm 1 mps 621 mmHg 56%
    14:00 +26°C° 1.3 mm 1 mps 621 mmHg 63%
    15:00 +26°C° 1.3 mm 1 mps 620 mmHg 69%
    16:00 +25°C° 1.3 mm 1 mps 619 mmHg 76%
    17:00 +23°C° 1.5 mm 1 mps 619 mmHg 80%
    18:00 +22°C° 1.5 mm 1 mps 619 mmHg 84%
    19:00 +19°C° 1.5 mm 0 mps 619 mmHg 88%
    20:00 +21°C° 0.6 mm 1 mps 620 mmHg 88%
    21:00 +20°C° 0.6 mm 1 mps 620 mmHg 88%
    22:00 +20°C° 0.6 mm 1 mps 620 mmHg 89%
    23:00 +19°C° 0 mm 1 mps 620 mmHg 88%

    8 April, Wednesday

    Time Temperature Precipitation Wind Pressure Humidity
    00:00 +19°C° 0 mm 1 mps 619 mmHg 88%
    01:00 +19°C° 0 mm 1 mps 619 mmHg 87%
    02:00 +18°C° 0 mm 1 mps 618 mmHg 87%
    03:00 +18°C° 0 mm 1 mps 618 mmHg 86%
    04:00 +18°C° 0 mm 1 mps 618 mmHg 85%
    05:00 +18°C° 0 mm 1 mps 618 mmHg 84%
    06:00 +19°C° 0 mm 1 mps 619 mmHg 82%
    07:00 +19°C° 0 mm 1 mps 620 mmHg 80%
    08:00 +22°C° 0 mm 1 mps 620 mmHg 71%
    09:00 +24°C° 0 mm 1 mps 621 mmHg 63%
    10:00 +27°C° 0 mm 1 mps 622 mmHg 54%
    11:00 +27°C° 0.1 mm 1 mps 622 mmHg 53%
    12:00 +28°C° 0.1 mm 2 mps 622 mmHg 52%
    13:00 +28°C° 0.1 mm 2 mps 621 mmHg 52%
    14:00 +28°C° 0.7 mm 2 mps 620 mmHg 58%
    15:00 +27°C° 0.7 mm 2 mps 620 mmHg 64%
    16:00 +26°C° 0.7 mm 1 mps 619 mmHg 71%
    17:00 +24°C° 1.9 mm 1 mps 619 mmHg 77%
    18:00 +22°C° 1.9 mm 1 mps 619 mmHg 83%
    19:00 +19°C° 1.9 mm 0 mps 619 mmHg 90%
    20:00 +18°C° 0.9 mm 0 mps 619 mmHg 89%
    21:00 +20°C° 0.9 mm 1 mps 619 mmHg 88%
    22:00 +20°C° 0.9 mm 1 mps 620 mmHg 88%
    23:00 +19°C° 0.6 mm 1 mps 619 mmHg 88%
    Show more